WetterOnline ( http://www.wetteronline.de )

Wetter aktuell Lage

Aktuelles Wetter: Bad Salzuflen (139m)

6-stündlich | Neueste Meldungen
Ortszeit Temperatur Wetter
Sa, 19.01. 7:00 -2.9° C bedeckt
Sa, 19.01. 1:00 -1.9° C wolkig
Fr, 18.01. 19:00 0.5° C bewölkt
Fr, 18.01. 13:00 1.9° C fast wolkenlos
Fr, 18.01. 7:00 -1.7° C wolkenlos
Fr, 18.01. 1:00 0.2° C bedeckt
Do, 17.01. 19:00 0.6° C bewölkt
Do, 17.01. 13:00 5.1° C bewölkt
Ortszeit Temperatur Wetter
Sa, 19.01. 9:30 -2.6° C bedeckt
Sa, 19.01. 9:20 -2.6° C bedeckt
Sa, 19.01. 9:10 -2.9° C bedeckt
Sa, 19.01. 9:00 -3.3° C bedeckt
Sa, 19.01. 8:50 -3.3° C bedeckt
Sa, 19.01. 8:40 -3.3° C bedeckt
Sa, 19.01. 8:30 -3.1° C bedeckt
Sa, 19.01. 8:00 -3.2° C bedeckt
Sa, 19.01. 7:30 -3.1° C bedeckt
Sa, 19.01. 7:00 -2.9° C bedeckt
Sa, 19.01. 6:30 -2.8° C bedeckt
Ortszeit Relative Feuchte Sichtweite
Sa, 19.01. 7:00 79% 35 km
Sa, 19.01. 1:00 82% 27 km
Fr, 18.01. 19:00 76% 30 km
Fr, 18.01. 13:00 70% 50 km
Fr, 18.01. 7:00 93% 8 km
Fr, 18.01. 1:00 90% 45 km
Do, 17.01. 19:00 90% 30 km
Do, 17.01. 13:00 73% 30 km
Ortszeit Relative Feuchte Sichtweite
Sa, 19.01. 9:30 76% 35 km
Sa, 19.01. 9:20 76% -
Sa, 19.01. 9:10 80% -
Sa, 19.01. 9:00 80% 30 km
Sa, 19.01. 8:50 80% -
Sa, 19.01. 8:40 81% -
Sa, 19.01. 8:30 79% 30 km
Sa, 19.01. 8:00 82% 29 km
Sa, 19.01. 7:30 80% 35 km
Sa, 19.01. 7:00 79% 35 km
Sa, 19.01. 6:30 79% 40 km
Ortszeit Niederschlagsmenge Niederschlagsart
Sa, 19.01. 7:00 0.0 l/m2 in 12 Std. -
Sa, 19.01. 1:00 0.0 l/m2 in 6 Std. -
Fr, 18.01. 19:00 0.0 l/m2 in 12 Std. -
Fr, 18.01. 13:00 0.0 l/m2 in 6 Std. -
Fr, 18.01. 7:00 0.1 l/m2 in 12 Std. Schnee, Sprühregen
Fr, 18.01. 1:00 0.1 l/m2 in 6 Std. Schnee, Sprühregen
Do, 17.01. 19:00 5 l/m2 in 12 Std. Schnee, Regen
Do, 17.01. 13:00 0.1 l/m2 in 6 Std. Regen
Ortszeit Niederschlagsmenge Niederschlagsart
Sa, 19.01. 9:30 0.0 l/m2 in 1 Std. -
Sa, 19.01. 9:20 keine Meldung -
Sa, 19.01. 9:10 keine Meldung -
Sa, 19.01. 9:00 0.0 l/m2 in 1 Std. -
Sa, 19.01. 8:50 keine Meldung -
Sa, 19.01. 8:40 keine Meldung -
Sa, 19.01. 8:30 0.0 l/m2 in 1 Std. -
Sa, 19.01. 8:00 0.0 l/m2 in 1 Std. -
Sa, 19.01. 7:30 0.0 l/m2 in 1 Std. -
Sa, 19.01. 7:00 0.0 l/m2 in 1 Std. -
Sa, 19.01. 6:30 0.0 l/m2 in 1 Std. -
Ortszeit Stärke Spitze Richtung
km/h Bft. km/h Grad Sektor
Sa, 19.01. 7:00 4 1 11 200° S
Sa, 19.01. 1:00 0 0 11 - -
Fr, 18.01. 19:00 7 2 25 210° SW
Fr, 18.01. 13:00 13 3 22 220° SW
Fr, 18.01. 7:00 4 1 29 180° S
Fr, 18.01. 1:00 13 3 33 300° NW
Do, 17.01. 19:00 7 2 47 240° SW
Do, 17.01. 13:00 18 3 36 230° SW
Ortszeit Stärke Spitze Richtung
km/h Bft. km/h Grad Sektor
Sa, 19.01. 9:30 4 1 7 180° S
Sa, 19.01. 9:20 4 1 - 180° S
Sa, 19.01. 9:10 2 1 - 200° S
Sa, 19.01. 9:00 2 1 6 330° NW
Sa, 19.01. 8:50 2 1 - 330° NW
Sa, 19.01. 8:40 4 1 - 10° N
Sa, 19.01. 8:30 4 1 7 10° N
Sa, 19.01. 8:00 2 1 7 360° N
Sa, 19.01. 7:30 4 1 7 240° SW
Sa, 19.01. 7:00 4 1 7 200° S
Sa, 19.01. 6:30 4 1 7 220° SW
Ortszeit Untergrenze Bedeckung Gattung
total tief tief mittel hoch
Sa, 19.01. 7:00 4500 m 8/8 8/8 - - -
Sa, 19.01. 1:00 1050 m 8/8 1/8 - - -
Fr, 18.01. 19:00 1170 m 8/8 7/8 - - -
Fr, 18.01. 13:00 9000 m 1/8 0/8 - - -
Fr, 18.01. 7:00 - 0/8 0/8 - - -
Fr, 18.01. 1:00 210 m 8/8 8/8 - - -
Do, 17.01. 19:00 300 m 7/8 7/8 - - -
Do, 17.01. 13:00 630 m 7/8 7/8 - - -
Ortszeit Bedeckungsgrad in Achtel und Wolkenuntergrenze
Sa, 19.01. 9:30 8(3600m) 8(8400m) 8(9000m)
Sa, 19.01. 9:20 8(3600m) 8(8400m) 8(9000m)
Sa, 19.01. 9:10 8(3600m) 8(8400m) 8(9000m)
Sa, 19.01. 9:00 8(3600m) 8(6600m) 8(9000m)
Sa, 19.01. 8:50 8(3600m) 8(6600m) 8(9000m)
Sa, 19.01. 8:40 8(3600m) 8(6600m) 8(8700m)
Sa, 19.01. 8:30 8(3600m) 8(6600m) 8(8700m)
Sa, 19.01. 8:00 8(3600m) 8(9000m)
Sa, 19.01. 7:30 8(4200m) 8(8100m) 8(9000m)
Sa, 19.01. 7:00 8(4500m) 8(9000m)
Sa, 19.01. 6:30 8(4800m) 8(6900m) 8(8400m)
Ortszeit Luftdruck NN (hPa) Tendenz (hPa in 3 Std.)
Sa, 19.01. 7:00 1020 - 0,6
Sa, 19.01. 1:00 1021 0,0
Fr, 18.01. 19:00 1021 + 0,6
Fr, 18.01. 13:00 1020 + 0,6
Fr, 18.01. 7:00 1017 + 2,3
Fr, 18.01. 1:00 1011 + 3,5
Do, 17.01. 19:00 1005 + 3,5
Do, 17.01. 13:00 1000 - 1,3
Ortszeit Luftdruck NN (hPa) Tendenz (hPa in 3 Std.)
Sa, 19.01. 9:30 1020 + 0,4
Sa, 19.01. 9:20 1020 keine Meldung
Sa, 19.01. 9:10 1020 keine Meldung
Sa, 19.01. 9:00 1020 0,0
Sa, 19.01. 8:50 1020 keine Meldung
Sa, 19.01. 8:40 1020 keine Meldung
Sa, 19.01. 8:30 1020 - 0,1
Sa, 19.01. 8:00 1020 - 0,5
Sa, 19.01. 7:30 1020 - 0,5
Sa, 19.01. 7:00 1020 - 0,6
Sa, 19.01. 6:30 1020 - 0,9
Ortszeit Schneehöhe (cm)
Sa, 19.01. 7:00 0
Sa, 19.01. 1:00 0
Fr, 18.01. 19:00 0
Fr, 18.01. 13:00 0
Fr, 18.01. 7:00 0
Fr, 18.01. 1:00 0
Do, 17.01. 19:00 0
Do, 17.01. 13:00 0
Ortszeit Schneehöhe (cm)
Sa, 19.01. 9:30 0
Sa, 19.01. 9:20 0
Sa, 19.01. 9:10 0
Sa, 19.01. 9:00 0
Sa, 19.01. 8:50 0
Sa, 19.01. 8:40 0
Sa, 19.01. 8:30 0
Sa, 19.01. 8:00 0
Sa, 19.01. 7:30 0
Sa, 19.01. 7:00 0
Sa, 19.01. 6:30 0
Link zu dieser Seite / Seite empfehlen

Das Wetter in ...